Home   Weather   Ahlen   Past weeks

Flag for Germany Past Weather in Ahlen, North Rhine-Westphalia, Germany — Yesterday and Last 2 Weeks

Now
48 °F

Drizzle. Fog.


Feels Like: 42 °F
Forecast: 41 / 46 °F
Wind: 16 mph from Southwest

Location: Muenster / Osnabrueck

Current Time: Dec 11, 2016 at 3:21:38 am

Latest Report: Dec 11, 2016 at 2:50 am


Visibility: 3 mi

Pressure: 29.89 "Hg

Humidity: 94%

Dew Point: 46 °F

Location of AhlenLocation

Past Weather in Ahlen — Graph

°F

Ahlen Temperature Yesterday

Maximum temperature yesterday: 48 °F (at 12:20 am)
Minimum temperature yesterday: 45 °F (at 6:50 am)
Average temperature yesterday: 46 °F

High & Low Weather Summary for the Past Weeks

 TemperatureHumidityPressure
High50 °F (Dec 8, 12:50 pm)100% (Nov 26, 1:20 am)30.60 "Hg (Nov 26, 1:20 am)
Low18 °F (Nov 29, 7:20 am)42% (Dec 5, 2:50 pm)29.95 "Hg (Dec 11, 1:20 am)
Average35 °F86%30.31 "Hg
* Reported Nov 26 1:20 am — Dec 11 1:50 am, Ahlen, Weather by CustomWeather, © 2016

Note: Actual official high and low records may vary slightly from our data, if they occured in-between our weather recording intervals... More about our weather records

Advertising

Ahlen Weather History for the Previous 24 Hours

Scroll right to see more
 ConditionsComfort  
Time TempWeatherWind HumidityBarometerVisibility
1:50 am
Sun, Dec 11
48 °FDrizzle. Fog.13 mph94%29.95 "Hg2 mi
1:20 am48 °FDrizzle. Fog.13 mph94%29.95 "Hg2 mi
12:50 am48 °FDrizzle. Fog.13 mph94%29.98 "Hg3 mi
12:20 am48 °FDrizzle. Fog.9 mph94%30.01 "Hg3 mi
11:50 pm
Sat, Dec 10
48 °FDrizzle. Fog.7 mph94%30.01 "Hg3 mi
11:20 pm48 °FDrizzle. Fog.6 mph94%30.04 "Hg3 mi
10:50 pm46 °FDrizzle. Fog.6 mph100%30.04 "Hg2 mi
10:20 pm46 °FDrizzle. Fog.6 mph100%30.07 "Hg2 mi
9:50 pm46 °FDrizzle. Fog.6 mph93%30.07 "Hg2 mi
9:20 pm46 °FDrizzle. Fog.6 mph93%30.09 "Hg2 mi
8:50 pm46 °FDrizzle. Fog.6 mph93%30.09 "Hg1 mi
8:20 pm46 °FDrizzle. Fog.6 mph93%30.12 "Hg1 mi
7:50 pm46 °FDrizzle. Fog.6 mph93%30.12 "Hg1 mi
7:20 pm45 °FDrizzle. Fog.5 mph100%30.12 "Hg1 mi
6:50 pm45 °FDrizzle. Fog.5 mph100%30.15 "Hg1 mi
6:20 pm45 °FDrizzle. Fog.6 mph100%30.15 "Hg1 mi
5:50 pm45 °FDrizzle. Fog.5 mph100%30.15 "Hg1 mi
5:20 pm45 °FDrizzle. Fog.7 mph100%30.15 "Hg2 mi
4:50 pm45 °FDrizzle. Fog.7 mph100%30.15 "Hg1 mi
4:20 pm45 °FDrizzle. Fog.8 mph100%30.15 "Hg1 mi
3:50 pm45 °FDrizzle. Fog.7 mph100%30.15 "Hg1 mi
3:20 pm45 °FDrizzle. Fog.7 mph93%30.15 "Hg1 mi
2:50 pm45 °FDrizzle. Fog.8 mph93%30.18 "Hg1 mi
2:20 pm45 °FDrizzle. Fog.7 mph93%30.18 "Hg1 mi
1:50 pm45 °FDrizzle. Fog.8 mph93%30.18 "Hg2 mi
1:20 pm46 °FDrizzle. Fog.8 mph87%30.18 "Hg2 mi
12:50 pm46 °FDrizzle. Partly sunny.12 mph87%30.18 "HgN/A
12:20 pm46 °FPartly sunny.10 mph82%30.18 "HgN/A
11:50 am46 °FPartly sunny.12 mph82%30.18 "HgN/A
11:20 am46 °FPartly sunny.9 mph82%30.21 "HgN/A
10:50 am46 °FPartly sunny.8 mph82%30.21 "HgN/A
10:20 am46 °FPartly sunny.9 mph82%30.21 "HgN/A
9:50 am46 °FPartly sunny.7 mph82%30.18 "HgN/A
9:20 am45 °FPassing clouds.8 mph81%30.18 "HgN/A
8:50 am45 °FSunny.8 mph81%30.18 "Hg10 mi
8:20 am46 °FPassing clouds.9 mph76%30.18 "HgN/A
7:50 am46 °FClear.10 mph76%30.18 "Hg10 mi
7:20 am46 °FPassing clouds.10 mph76%30.18 "HgN/A
6:50 am45 °FClear.9 mph81%30.18 "Hg10 mi
6:20 am46 °FPassing clouds.8 mph76%30.18 "HgN/A
5:50 am46 °FPassing clouds.8 mph82%30.18 "HgN/A
5:20 am46 °FPassing clouds.9 mph82%30.18 "HgN/A
4:50 am46 °FPassing clouds.9 mph82%30.18 "HgN/A
4:20 am46 °FPassing clouds.9 mph82%30.18 "HgN/A
3:50 am46 °FPassing clouds.9 mph82%30.21 "HgN/A
3:20 am46 °FClear.7 mph82%30.24 "Hg10 mi
Weather by CustomWeather, © 2016

See weather overviewHow to use our weather pages